Darstellungsparameter: Aktuell verwendete Einstellungen:
Skalierung der Graphiken ... ?
xyx+y,   Skalierungsfaktor:      Skalierung: Modus: x, Faktor: 1
Darstellungszeitraum ... ?
Vom - - bis: - -   Zeitraum: 29.06.2020 - 29.06.2020
Min/Max/Avg-Anzeige ... ?
Zeige MMA aktuell
Zeige MMA Monat
Zeige MMA alles
Zeige --A aktuell
Zeige --A Monat
Zeige --A alles
Keine MMA-Anzeige
MMA:
Average (ber die Originaldaten)
MMA-Basis: 29.06.2020 - 29.06.2020
Quicknavigation für Darstellung... ?
Tage:      1T, 2T, 3T, 5T -1T -2T -3T -5T +1T +2T +3T +5T
Wochen: 1W, 2W, 3W -1W -2W -3W +1W +2W +3W
Monate: 1M, 3M, 6M -1M -3M -6M +1M +3M +6M
Jahre:    1J, 3J, 5J, 10J -1J -3J -5J -10J +1J +3J +5J +10J
Nutze für die Darstellung ... ?
Originaldaten oder Mittelwerte auf ...
Stundenbasis Tagesbasis Wochenbasis
Monatsbasis Jahresbasis      Datenbasis: Original-Daten
Darstellen als:
Statistik (Auto) Statistik J:M      Darstellung:
Zur Graphik,    zurück zur Übersicht aller Sensoren.
 
Tabellarische Datenbersicht: ?
 
Sensor: Nr:Datum:Temp:Abs-Feuchte:Windchill:Wind:
Aussen-T/F 1 29-06-2020 00:00:00 15.1 C 10.84 g/m*3 15.1 C 3.2 km/h
2 29-06-2020 00:05:00 15.1 C 10.84 g/m*3 15.1 C 3.2 km/h
3 29-06-2020 00:10:00 15 C 10.77 g/m*3 15 C 3.2 km/h
4 29-06-2020 00:15:00 15 C 10.77 g/m*3 15 C 6.4 km/h
5 29-06-2020 00:20:00 15.1 C 10.84 g/m*3 15.1 C 3.2 km/h
6 29-06-2020 00:25:00 15.1 C 10.84 g/m*3 15.1 C 3.2 km/h
7 29-06-2020 00:30:00 15.1 C 10.84 g/m*3 15.1 C 3.2 km/h
8 29-06-2020 00:35:00 15.1 C 10.84 g/m*3 15.1 C 6.4 km/h
9 29-06-2020 00:40:00 15.1 C 10.84 g/m*3 15.1 C 3.2 km/h
10 29-06-2020 00:45:00 15.1 C 10.84 g/m*3 15.1 C 3.2 km/h
11 29-06-2020 00:50:00 15 C 10.77 g/m*3 15 C 4.8 km/h
12 29-06-2020 00:55:00 15 C 10.9 g/m*3 15 C 3.2 km/h
13 29-06-2020 01:00:00 15 C 10.9 g/m*3 15 C 4.8 km/h
14 29-06-2020 01:05:00 15 C 10.9 g/m*3 15 C 3.2 km/h
15 29-06-2020 01:10:00 15 C 10.9 g/m*3 15 C 3.2 km/h
16 29-06-2020 01:15:00 14.9 C 10.83 g/m*3 14.9 C 0 km/h
17 29-06-2020 01:20:00 14.9 C 10.83 g/m*3 14.9 C 0 km/h
18 29-06-2020 01:25:00 14.8 C 10.77 g/m*3 14.8 C 0 km/h
19 29-06-2020 01:30:00 14.8 C 10.77 g/m*3 14.8 C 0 km/h
20 29-06-2020 01:35:00 14.7 C 10.7 g/m*3 14.7 C 0 km/h
21 29-06-2020 01:40:00 14.5 C 10.7 g/m*3 14.5 C 0 km/h
22 29-06-2020 01:45:00 14.4 C 10.63 g/m*3 14.4 C 0 km/h
23 29-06-2020 01:50:00 14.2 C 10.5 g/m*3 14.2 C 0 km/h
24 29-06-2020 01:55:00 14.2 C 10.62 g/m*3 14.2 C 1.6 km/h
25 29-06-2020 02:00:00 14.1 C 10.56 g/m*3 14.1 C 1.6 km/h
Sensor: Nr:Datum:Temp:Abs-Feuchte:Windchill:Wind:
Aussen-T/F 26 29-06-2020 02:05:00 13.9 C 10.55 g/m*3 13.9 C 4.8 km/h
27 29-06-2020 02:10:00 13.9 C 10.55 g/m*3 13.9 C 3.2 km/h
28 29-06-2020 02:15:00 13.9 C 10.55 g/m*3 13.9 C 1.6 km/h
29 29-06-2020 02:20:00 13.8 C 10.6 g/m*3 13.8 C 1.6 km/h
30 29-06-2020 02:25:00 13.8 C 10.6 g/m*3 13.8 C 4.8 km/h
31 29-06-2020 02:30:00 13.8 C 10.6 g/m*3 13.8 C 1.6 km/h
32 29-06-2020 02:35:00 13.8 C 10.6 g/m*3 13.8 C 0 km/h
33 29-06-2020 02:40:00 13.8 C 10.72 g/m*3 13.8 C 0 km/h
34 29-06-2020 02:45:00 13.8 C 10.72 g/m*3 13.8 C 0 km/h
35 29-06-2020 02:50:00 13.8 C 10.72 g/m*3 13.8 C 0 km/h
36 29-06-2020 02:55:00 13.8 C 10.72 g/m*3 13.8 C 0 km/h
37 29-06-2020 03:00:00 13.8 C 10.72 g/m*3 13.8 C 0 km/h
38 29-06-2020 03:05:00 13.8 C 10.72 g/m*3 13.8 C 0 km/h
39 29-06-2020 03:10:00 13.9 C 10.79 g/m*3 13.9 C 3.2 km/h
40 29-06-2020 03:15:00 13.9 C 10.79 g/m*3 13.9 C 4.8 km/h
41 29-06-2020 03:20:00 13.9 C 10.91 g/m*3 13.9 C 4.8 km/h
42 29-06-2020 03:25:00 14.1 C 11.04 g/m*3 14.1 C 1.6 km/h
43 29-06-2020 03:30:00 14.1 C 11.04 g/m*3 14.1 C 1.6 km/h
44 29-06-2020 03:35:00 14.1 C 10.92 g/m*3 14.1 C 0 km/h
45 29-06-2020 03:40:00 14.1 C 10.92 g/m*3 14.1 C 0 km/h
46 29-06-2020 03:45:00 14.1 C 10.92 g/m*3 14.1 C 0 km/h
47 29-06-2020 03:50:00 13.9 C 10.79 g/m*3 13.9 C 0 km/h
48 29-06-2020 03:55:00 13.9 C 10.79 g/m*3 13.9 C 1.6 km/h
49 29-06-2020 04:00:00 13.8 C 10.72 g/m*3 13.8 C 0 km/h
50 29-06-2020 04:05:00 13.8 C 10.84 g/m*3 13.8 C 3.2 km/h
Sensor: Nr:Datum:Temp:Abs-Feuchte:Windchill:Wind:
Aussen-T/F 51 29-06-2020 04:10:00 13.9 C 10.91 g/m*3 13.9 C 0 km/h
52 29-06-2020 04:15:00 14 C 10.98 g/m*3 14 C 0 km/h
53 29-06-2020 04:20:00 14.1 C 11.04 g/m*3 14.1 C 0 km/h
54 29-06-2020 04:25:00 14.1 C 11.17 g/m*3 14.1 C 0 km/h
55 29-06-2020 04:30:00 14.2 C 11.11 g/m*3 14.2 C 0 km/h
56 29-06-2020 04:35:00 14.2 C 11.11 g/m*3 14.2 C 1.6 km/h
57 29-06-2020 04:40:00 14.2 C 11.11 g/m*3 14.2 C 1.6 km/h
58 29-06-2020 04:45:00 14.3 C 11.18 g/m*3 14.3 C 0 km/h
59 29-06-2020 04:50:00 14.3 C 11.18 g/m*3 14.3 C 0 km/h
60 29-06-2020 04:55:00 14.3 C 11.18 g/m*3 14.3 C 3.2 km/h
61 29-06-2020 05:00:00 14.4 C 11.25 g/m*3 14.4 C 3.2 km/h
62 29-06-2020 05:05:00 14.5 C 11.32 g/m*3 14.5 C 4.8 km/h
63 29-06-2020 05:10:00 14.6 C 11.39 g/m*3 14.6 C 3.2 km/h
64 29-06-2020 05:15:00 14.7 C 11.33 g/m*3 14.7 C 4.8 km/h
65 29-06-2020 05:20:00 14.8 C 11.27 g/m*3 14.8 C 1.6 km/h
66 29-06-2020 05:25:00 14.9 C 11.34 g/m*3 14.9 C 4.8 km/h
67 29-06-2020 05:30:00 15.1 C 11.35 g/m*3 15.1 C 1.6 km/h
68 29-06-2020 05:35:00 15.1 C 11.35 g/m*3 15.1 C 3.2 km/h
69 29-06-2020 05:40:00 15.2 C 11.42 g/m*3 15.2 C 1.6 km/h
70 29-06-2020 05:45:00 15.2 C 11.42 g/m*3 15.2 C 4.8 km/h
71 29-06-2020 05:50:00 15.2 C 11.29 g/m*3 15.2 C 1.6 km/h
72 29-06-2020 05:55:00 15.2 C 11.29 g/m*3 15.2 C 3.2 km/h
73 29-06-2020 06:00:00 15.2 C 11.29 g/m*3 15.2 C 3.2 km/h
74 29-06-2020 06:05:00 15.3 C 11.36 g/m*3 15.3 C 4.8 km/h
75 29-06-2020 06:10:00 15.3 C 11.36 g/m*3 15.3 C 1.6 km/h
Sensor: Nr:Datum:Temp:Abs-Feuchte:Windchill:Wind:
Aussen-T/F 76 29-06-2020 06:15:00 15.2 C 11.29 g/m*3 15.2 C 4.8 km/h
77 29-06-2020 06:20:00 15.3 C 11.36 g/m*3 15.3 C 4.8 km/h
78 29-06-2020 06:25:00 15.3 C 11.36 g/m*3 15.3 C 1.6 km/h
79 29-06-2020 06:30:00 15.4 C 11.43 g/m*3 15.4 C 3.2 km/h
80 29-06-2020 06:35:00 15.4 C 11.43 g/m*3 15.4 C 4.8 km/h
81 29-06-2020 06:40:00 15.5 C 11.5 g/m*3 15.5 C 3.2 km/h
82 29-06-2020 06:45:00 15.6 C 11.44 g/m*3 15.6 C 6.4 km/h
83 29-06-2020 06:50:00 15.7 C 11.51 g/m*3 15.7 C 8.1 km/h
84 29-06-2020 06:55:00 15.8 C 11.58 g/m*3 15.8 C 3.2 km/h
85 29-06-2020 07:00:00 15.8 C 11.58 g/m*3 15.8 C 0 km/h
86 29-06-2020 07:05:00 15.9 C 11.65 g/m*3 15.9 C 0 km/h
87 29-06-2020 07:10:00 16 C 11.72 g/m*3 16 C 1.6 km/h
88 29-06-2020 07:15:00 16.1 C 11.65 g/m*3 16.1 C 3.2 km/h
89 29-06-2020 07:20:00 16.2 C 11.72 g/m*3 16.2 C 1.6 km/h
90 29-06-2020 07:25:00 16.3 C 11.65 g/m*3 16.3 C 0 km/h
91 29-06-2020 07:30:00 16.4 C 11.72 g/m*3 16.4 C 1.6 km/h
92 29-06-2020 07:35:00 16.5 C 11.8 g/m*3 16.5 C 1.6 km/h
93 29-06-2020 07:40:00 16.6 C 11.87 g/m*3 16.6 C 1.6 km/h
94 29-06-2020 07:45:00 16.8 C 11.87 g/m*3 16.8 C 3.2 km/h
95 29-06-2020 07:50:00 16.9 C 11.94 g/m*3 16.9 C 1.6 km/h
96 29-06-2020 07:55:00 17.1 C 11.94 g/m*3 17.1 C 4.8 km/h
97 29-06-2020 08:00:00 17.2 C 12.01 g/m*3 17.2 C 6.4 km/h
98 29-06-2020 08:05:00 17.2 C 11.86 g/m*3 17.2 C 8.1 km/h
99 29-06-2020 08:10:00 17.2 C 11.86 g/m*3 17.2 C 4.8 km/h
100 29-06-2020 08:15:00 17.2 C 11.86 g/m*3 17.2 C 4.8 km/h
Sensor: Nr:Datum:Temp:Abs-Feuchte:Windchill:Wind:
Aussen-T/F 101 29-06-2020 08:20:00 17.2 C 11.86 g/m*3 17.2 C 4.8 km/h
102 29-06-2020 08:25:00 17.1 C 11.94 g/m*3 17.1 C 6.4 km/h
103 29-06-2020 08:30:00 17.1 C 11.94 g/m*3 17.1 C 8.1 km/h
104 29-06-2020 08:35:00 17 C 11.87 g/m*3 17 C 12.9 km/h
105 29-06-2020 08:40:00 16.5 C 9.83 g/m*3 16.5 C 22.5 km/h
106 29-06-2020 08:45:00 15.9 C 9.62 g/m*3 15.9 C 12.9 km/h
107 29-06-2020 08:50:00 14.8 C 9.75 g/m*3 14.8 C 20.9 km/h
108 29-06-2020 08:55:00 13.8 C 9.77 g/m*3 13.8 C 12.9 km/h
109 29-06-2020 09:00:00 13.3 C 9.82 g/m*3 13.3 C 8.1 km/h
110 29-06-2020 09:05:00 13.1 C 10.04 g/m*3 13.1 C 6.4 km/h
111 29-06-2020 09:10:00 12.8 C 9.97 g/m*3 12.8 C 12.9 km/h
112 29-06-2020 09:15:00 12.6 C 9.85 g/m*3 12.6 C 11.3 km/h
113 29-06-2020 09:20:00 12.4 C 9.94 g/m*3 12.4 C 6.4 km/h
114 29-06-2020 09:25:00 12.4 C 10.05 g/m*3 12.4 C 9.7 km/h
115 29-06-2020 09:30:00 12.4 C 10.05 g/m*3 12.4 C 4.8 km/h
116 29-06-2020 09:35:00 12.3 C 9.99 g/m*3 12.3 C 6.4 km/h
117 29-06-2020 09:40:00 12.3 C 9.99 g/m*3 12.3 C 9.7 km/h
118 29-06-2020 09:45:00 12.2 C 10.04 g/m*3 12.2 C 4.8 km/h
119 29-06-2020 09:50:00 12.2 C 10.04 g/m*3 12.2 C 4.8 km/h
120 29-06-2020 09:55:00 12.2 C 10.04 g/m*3 12.2 C 3.2 km/h
121 29-06-2020 10:00:00 12.2 C 10.04 g/m*3 12.2 C 6.4 km/h
122 29-06-2020 10:05:00 12.3 C 10.21 g/m*3 12.3 C 4.8 km/h
123 29-06-2020 10:10:00 12.4 C 10.27 g/m*3 12.4 C 0 km/h
124 29-06-2020 10:15:00 12.6 C 10.4 g/m*3 12.6 C 0 km/h
125 29-06-2020 10:20:00 12.9 C 10.71 g/m*3 12.9 C 1.6 km/h
Sensor: Nr:Datum:Temp:Abs-Feuchte:Windchill:Wind:
Aussen-T/F 126 29-06-2020 10:25:00 13.2 C 10.91 g/m*3 13.2 C 3.2 km/h
127 29-06-2020 10:30:00 13.4 C 10.93 g/m*3 13.4 C 0 km/h
128 29-06-2020 10:35:00 13.7 C 11.25 g/m*3 13.7 C 0 km/h
129 29-06-2020 10:40:00 13.8 C 11.08 g/m*3 13.8 C 1.6 km/h
130 29-06-2020 10:45:00 14 C 11.22 g/m*3 14 C 3.2 km/h
131 29-06-2020 10:50:00 14.2 C 11.23 g/m*3 14.2 C 6.4 km/h
132 29-06-2020 10:55:00 14.4 C 11.25 g/m*3 14.4 C 6.4 km/h
133 29-06-2020 11:00:00 14.6 C 11.26 g/m*3 14.6 C 6.4 km/h
134 29-06-2020 11:05:00 14.8 C 11.4 g/m*3 14.8 C 4.8 km/h
135 29-06-2020 11:10:00 15 C 11.41 g/m*3 15 C 4.8 km/h
136 29-06-2020 11:15:00 15.2 C 11.42 g/m*3 15.2 C 4.8 km/h
137 29-06-2020 11:20:00 15.5 C 11.5 g/m*3 15.5 C 8.1 km/h
138 29-06-2020 11:25:00 15.7 C 11.51 g/m*3 15.7 C 6.4 km/h
139 29-06-2020 11:30:00 15.8 C 11.58 g/m*3 15.8 C 4.8 km/h
140 29-06-2020 11:35:00 16.1 C 11.79 g/m*3 16.1 C 8.1 km/h
141 29-06-2020 11:40:00 16.3 C 11.79 g/m*3 16.3 C 6.4 km/h
142 29-06-2020 11:45:00 16.6 C 11.87 g/m*3 16.6 C 9.7 km/h
143 29-06-2020 11:50:00 16.7 C 11.8 g/m*3 16.7 C 8.1 km/h
144 29-06-2020 11:55:00 16.9 C 11.94 g/m*3 16.9 C 4.8 km/h
145 29-06-2020 12:00:00 17.2 C 12.15 g/m*3 17.2 C 8.1 km/h
146 29-06-2020 12:05:00 17.3 C 11.93 g/m*3 17.3 C 4.8 km/h
147 29-06-2020 12:10:00 17.2 C 11.57 g/m*3 17.2 C 8.1 km/h
148 29-06-2020 12:15:00 17.2 C 11.72 g/m*3 17.2 C 8.1 km/h
149 29-06-2020 12:20:00 17.2 C 11.86 g/m*3 17.2 C 8.1 km/h
150 29-06-2020 12:25:00 17.4 C 11.86 g/m*3 17.4 C 8.1 km/h
Sensor: Nr:Datum:Temp:Abs-Feuchte:Windchill:Wind:
Aussen-T/F 151 29-06-2020 12:30:00 17.7 C 11.62 g/m*3 17.7 C 8.1 km/h
152 29-06-2020 12:35:00 17.8 C 11.84 g/m*3 17.8 C 8.1 km/h
153 29-06-2020 12:40:00 17.9 C 11.91 g/m*3 17.9 C 9.7 km/h
154 29-06-2020 12:45:00 18.1 C 11.9 g/m*3 18.1 C 12.9 km/h
155 29-06-2020 12:50:00 18.3 C 11.88 g/m*3 18.3 C 11.3 km/h
156 29-06-2020 12:55:00 18.6 C 12.1 g/m*3 18.6 C 6.4 km/h
157 29-06-2020 13:00:00 18.9 C 12.15 g/m*3 18.9 C 11.3 km/h
158 29-06-2020 13:05:00 19.2 C 11.87 g/m*3 19.2 C 16.1 km/h
159 29-06-2020 13:10:00 19.4 C 12.01 g/m*3 19.4 C 12.9 km/h
160 29-06-2020 13:15:00 19.7 C 12.06 g/m*3 19.7 C 12.9 km/h
161 29-06-2020 13:20:00 19.9 C 11.68 g/m*3 19.9 C 11.3 km/h
162 29-06-2020 13:25:00 20.1 C 11.99 g/m*3 20.1 C 9.7 km/h
163 29-06-2020 13:30:00 20.2 C 11.89 g/m*3 20.2 C 12.9 km/h
164 29-06-2020 13:35:00 20.3 C 12.14 g/m*3 20.3 C 11.3 km/h
165 29-06-2020 13:40:00 20.4 C 12.03 g/m*3 20.4 C 16.1 km/h
166 29-06-2020 13:45:00 20.5 C 12.28 g/m*3 20.5 C 22.5 km/h
167 29-06-2020 13:50:00 20.7 C 12.06 g/m*3 20.7 C 11.3 km/h
168 29-06-2020 13:55:00 20.8 C 12.13 g/m*3 20.8 C 12.9 km/h
169 29-06-2020 14:00:00 20.9 C 12.02 g/m*3 20.9 C 11.3 km/h
170 29-06-2020 14:05:00 21.1 C 12.16 g/m*3 21.1 C 17.7 km/h
171 29-06-2020 14:10:00 21 C 11.54 g/m*3 21 C 16.1 km/h
172 29-06-2020 14:15:00 20.9 C 11.47 g/m*3 20.9 C 14.5 km/h
173 29-06-2020 14:20:00 21.1 C 11.06 g/m*3 21.1 C 12.9 km/h
174 29-06-2020 14:25:00 21.2 C 11.3 g/m*3 21.2 C 17.7 km/h
175 29-06-2020 14:30:00 21.4 C 10.87 g/m*3 21.4 C 17.7 km/h
Sensor: Nr:Datum:Temp:Abs-Feuchte:Windchill:Wind:
Aussen-T/F 176 29-06-2020 14:35:00 21.7 C 11.83 g/m*3 21.7 C 19.3 km/h
177 29-06-2020 14:40:00 21.8 C 11.9 g/m*3 21.8 C 20.9 km/h
178 29-06-2020 14:45:00 21.8 C 11.51 g/m*3 21.8 C 16.1 km/h
179 29-06-2020 14:50:00 22.1 C 11.71 g/m*3 22.1 C 11.3 km/h
180 29-06-2020 14:55:00 22.3 C 11.26 g/m*3 22.3 C 16.1 km/h
181 29-06-2020 15:00:00 22.2 C 10.8 g/m*3 22.2 C 14.5 km/h
182 29-06-2020 15:05:00 22.2 C 10.21 g/m*3 22.2 C 17.7 km/h
183 29-06-2020 15:10:00 22.4 C 10.33 g/m*3 22.4 C 19.3 km/h
184 29-06-2020 15:15:00 22.8 C 9.55 g/m*3 22.8 C 19.3 km/h
185 29-06-2020 15:20:00 22.8 C 9.75 g/m*3 22.8 C 19.3 km/h
186 29-06-2020 15:25:00 22.6 C 9.64 g/m*3 22.6 C 20.9 km/h
187 29-06-2020 15:30:00 22.3 C 9.48 g/m*3 22.3 C 17.7 km/h
188 29-06-2020 15:35:00 22.7 C 9.9 g/m*3 22.7 C 17.7 km/h
189 29-06-2020 15:40:00 23.1 C 9.72 g/m*3 23.1 C 20.9 km/h
190 29-06-2020 15:45:00 23.4 C 9.46 g/m*3 23.4 C 17.7 km/h
191 29-06-2020 15:50:00 23.4 C 9.25 g/m*3 23.4 C 19.3 km/h
192 29-06-2020 15:55:00 23 C 9.25 g/m*3 23 C 16.1 km/h
193 29-06-2020 16:00:00 23.3 C 9.41 g/m*3 23.3 C 22.5 km/h
194 29-06-2020 16:05:00 23.7 C 10.05 g/m*3 23.7 C 16.1 km/h
195 29-06-2020 16:10:00 23.9 C 9.52 g/m*3 23.9 C 12.9 km/h
196 29-06-2020 16:15:00 23.7 C 9.41 g/m*3 23.7 C 11.3 km/h
197 29-06-2020 16:20:00 23.6 C 9.57 g/m*3 23.6 C 16.1 km/h
198 29-06-2020 16:25:00 23.2 C 9.98 g/m*3 23.2 C 19.3 km/h
199 29-06-2020 16:30:00 23.6 C 9.78 g/m*3 23.6 C 20.9 km/h
200 29-06-2020 16:35:00 24.1 C 9.41 g/m*3 24.1 C 19.3 km/h
Sensor: Nr:Datum:Temp:Abs-Feuchte:Windchill:Wind:
Aussen-T/F 201 29-06-2020 16:40:00 24.2 C 9.46 g/m*3 24.2 C 17.7 km/h
202 29-06-2020 16:45:00 24.2 C 9.46 g/m*3 24.2 C 12.9 km/h
203 29-06-2020 16:50:00 24.4 C 9.79 g/m*3 24.4 C 19.3 km/h
204 29-06-2020 16:55:00 24.2 C 9.46 g/m*3 24.2 C 16.1 km/h
205 29-06-2020 17:00:00 23.8 C 10.33 g/m*3 23.8 C 11.3 km/h
206 29-06-2020 17:05:00 24 C 10.23 g/m*3 24 C 12.9 km/h
207 29-06-2020 17:10:00 23.8 C 10.11 g/m*3 23.8 C 11.3 km/h
208 29-06-2020 17:15:00 23.7 C 9.63 g/m*3 23.7 C 12.9 km/h
209 29-06-2020 17:20:00 23.9 C 9.74 g/m*3 23.9 C 17.7 km/h
210 29-06-2020 17:25:00 24.2 C 9.9 g/m*3 24.2 C 19.3 km/h
211 29-06-2020 17:30:00 24.3 C 9.74 g/m*3 24.3 C 19.3 km/h
212 29-06-2020 17:35:00 24.5 C 9.62 g/m*3 24.5 C 17.7 km/h
213 29-06-2020 17:40:00 24.3 C 9.52 g/m*3 24.3 C 17.7 km/h
214 29-06-2020 17:45:00 23.8 C 9.46 g/m*3 23.8 C 14.5 km/h
215 29-06-2020 17:50:00 23.8 C 9.25 g/m*3 23.8 C 12.9 km/h
216 29-06-2020 17:55:00 24.2 C 9.46 g/m*3 24.2 C 11.3 km/h
217 29-06-2020 18:00:00 23.7 C 8.98 g/m*3 23.7 C 8.1 km/h
218 29-06-2020 18:05:00 23.3 C 9.62 g/m*3 23.3 C 8.1 km/h
219 29-06-2020 18:10:00 23.7 C 9.41 g/m*3 23.7 C 17.7 km/h
220 29-06-2020 18:15:00 23.6 C 9.15 g/m*3 23.6 C 16.1 km/h
221 29-06-2020 18:20:00 23.2 C 9.15 g/m*3 23.2 C 14.5 km/h
222 29-06-2020 18:25:00 23.2 C 9.36 g/m*3 23.2 C 14.5 km/h
223 29-06-2020 18:30:00 22.9 C 9.4 g/m*3 22.9 C 11.3 km/h
224 29-06-2020 18:35:00 23.1 C 9.1 g/m*3 23.1 C 12.9 km/h
225 29-06-2020 18:40:00 23.4 C 9.46 g/m*3 23.4 C 16.1 km/h
Sensor: Nr:Datum:Temp:Abs-Feuchte:Windchill:Wind:
Aussen-T/F 226 29-06-2020 18:45:00 23.8 C 8.82 g/m*3 23.8 C 14.5 km/h
227 29-06-2020 18:50:00 23.6 C 9.15 g/m*3 23.6 C 14.5 km/h
228 29-06-2020 18:55:00 22.9 C 9.2 g/m*3 22.9 C 14.5 km/h
229 29-06-2020 19:00:00 22.7 C 9.29 g/m*3 22.7 C 12.9 km/h
230 29-06-2020 19:05:00 23 C 9.45 g/m*3 23 C 16.1 km/h
231 29-06-2020 19:10:00 22.8 C 9.35 g/m*3 22.8 C 6.4 km/h
232 29-06-2020 19:15:00 22.7 C 9.09 g/m*3 22.7 C 9.7 km/h
233 29-06-2020 19:20:00 22.6 C 9.44 g/m*3 22.6 C 11.3 km/h
234 29-06-2020 19:25:00 22.4 C 8.74 g/m*3 22.4 C 17.7 km/h
235 29-06-2020 19:30:00 22.1 C 8.78 g/m*3 22.1 C 11.3 km/h
236 29-06-2020 19:35:00 21.7 C 8.58 g/m*3 21.7 C 17.7 km/h
237 29-06-2020 19:40:00 21.4 C 8.62 g/m*3 21.4 C 8.1 km/h
238 29-06-2020 19:45:00 21.3 C 9.13 g/m*3 21.3 C 14.5 km/h
239 29-06-2020 19:50:00 21.5 C 8.86 g/m*3 21.5 C 16.1 km/h
240 29-06-2020 19:55:00 21.6 C 8.53 g/m*3 21.6 C 16.1 km/h
241 29-06-2020 20:00:00 21.3 C 8.39 g/m*3 21.3 C 9.7 km/h
242 29-06-2020 20:05:00 20.9 C 8.74 g/m*3 20.9 C 8.1 km/h
243 29-06-2020 20:10:00 20.7 C 8.82 g/m*3 20.7 C 9.7 km/h
244 29-06-2020 20:15:00 20.4 C 9.02 g/m*3 20.4 C 6.4 km/h
245 29-06-2020 20:20:00 20.3 C 8.79 g/m*3 20.3 C 4.8 km/h
246 29-06-2020 20:25:00 20.4 C 8.67 g/m*3 20.4 C 9.7 km/h
247 29-06-2020 20:30:00 20.7 C 8.64 g/m*3 20.7 C 12.9 km/h
248 29-06-2020 20:35:00 20.8 C 8.51 g/m*3 20.8 C 11.3 km/h
249 29-06-2020 20:40:00 20.9 C 8.74 g/m*3 20.9 C 9.7 km/h
250 29-06-2020 20:45:00 21 C 8.61 g/m*3 21 C 14.5 km/h
Sensor: Nr:Datum:Temp:Abs-Feuchte:Windchill:Wind:
Aussen-T/F 251 29-06-2020 20:50:00 20.9 C 9.29 g/m*3 20.9 C 8.1 km/h
252 29-06-2020 20:55:00 20.8 C 9.23 g/m*3 20.8 C 6.4 km/h
253 29-06-2020 21:00:00 20.4 C 8.85 g/m*3 20.4 C 11.3 km/h
254 29-06-2020 21:05:00 20.3 C 8.97 g/m*3 20.3 C 8.1 km/h
255 29-06-2020 21:10:00 20.2 C 9.27 g/m*3 20.2 C 4.8 km/h
256 29-06-2020 21:15:00 19.9 C 9.11 g/m*3 19.9 C 6.4 km/h
257 29-06-2020 21:20:00 19.7 C 8.83 g/m*3 19.7 C 4.8 km/h
258 29-06-2020 21:25:00 19.6 C 9.12 g/m*3 19.6 C 3.2 km/h
259 29-06-2020 21:30:00 19.3 C 9.12 g/m*3 19.3 C 3.2 km/h
260 29-06-2020 21:35:00 19.1 C 9.18 g/m*3 19.1 C 8.1 km/h
261 29-06-2020 21:40:00 18.9 C 8.75 g/m*3 18.9 C 6.4 km/h
262 29-06-2020 21:45:00 18.8 C 9.34 g/m*3 18.8 C 4.8 km/h
263 29-06-2020 21:50:00 18.6 C 9.23 g/m*3 18.6 C 3.2 km/h
264 29-06-2020 21:55:00 18.4 C 9.12 g/m*3 18.4 C 4.8 km/h
265 29-06-2020 22:00:00 18.3 C 9.38 g/m*3 18.3 C 4.8 km/h
266 29-06-2020 22:05:00 18.1 C 8.96 g/m*3 18.1 C 4.8 km/h
267 29-06-2020 22:10:00 17.9 C 9.62 g/m*3 17.9 C 4.8 km/h
268 29-06-2020 22:15:00 17.7 C 9.51 g/m*3 17.7 C 3.2 km/h
269 29-06-2020 22:20:00 17.5 C 9.24 g/m*3 17.5 C 3.2 km/h
270 29-06-2020 22:25:00 17.3 C 9.28 g/m*3 17.3 C 1.6 km/h
271 29-06-2020 22:30:00 17.2 C 9.23 g/m*3 17.2 C 3.2 km/h
272 29-06-2020 22:35:00 16.9 C 9.06 g/m*3 16.9 C 4.8 km/h
273 29-06-2020 22:40:00 16.8 C 8.86 g/m*3 16.8 C 6.4 km/h
274 29-06-2020 22:45:00 16.7 C 8.95 g/m*3 16.7 C 3.2 km/h
275 29-06-2020 22:50:00 16.6 C 8.76 g/m*3 16.6 C 8.1 km/h
Sensor: Nr:Datum:Temp:Abs-Feuchte:Windchill:Wind:
Aussen-T/F 276 29-06-2020 22:55:00 16.4 C 8.79 g/m*3 16.4 C 4.8 km/h
277 29-06-2020 23:00:00 16.3 C 8.74 g/m*3 16.3 C 4.8 km/h
278 29-06-2020 23:05:00 16.3 C 9.02 g/m*3 16.3 C 3.2 km/h
279 29-06-2020 23:10:00 16.1 C 8.91 g/m*3 16.1 C 4.8 km/h
280 29-06-2020 23:15:00 16 C 8.86 g/m*3 16 C 6.4 km/h
281 29-06-2020 23:20:00 15.8 C 8.88 g/m*3 15.8 C 4.8 km/h
282 29-06-2020 23:25:00 15.7 C 9.1 g/m*3 15.7 C 4.8 km/h
283 29-06-2020 23:30:00 15.6 C 9.04 g/m*3 15.6 C 6.4 km/h
284 29-06-2020 23:35:00 15.4 C 9.07 g/m*3 15.4 C 4.8 km/h
285 29-06-2020 23:40:00 15.2 C 9.09 g/m*3 15.2 C 4.8 km/h
286 29-06-2020 23:45:00 15.1 C 9.16 g/m*3 15.1 C 4.8 km/h
287 29-06-2020 23:50:00 14.9 C 9.05 g/m*3 14.9 C 4.8 km/h
288 29-06-2020 23:55:00 14.7 C 9.07 g/m*3 14.7 C 4.8 km/h

Legende:
   Min
   Max


Maximal/Minimal-Werte vom 29.06.2020 - 29.06.2020

Sensor Min Max Avg
Temp
(Aussen-T/F)
12.2 °C
29-06-2020  09:45:00
24.5 °C
29-06-2020  17:35:00
17.7 °C
Abs-Feuchte
(Aussen-T/F)
8.39 g/m*3
29-06-2020  20:00:00
12.28 g/m*3
29-06-2020  13:45:00
10.42 g/m*3
Windchill
(Aussen-T/F)
12.2 C
29-06-2020  09:45:00
24.5 C
29-06-2020  17:35:00
17.64 C

Die Daten stammen von einer Davis Vantage Pro 2 Wetter-Station und werden unter Linux mit der Software wview2wettercgi und aufbereitet. Alle Angaben erfolgen ohne Gewähr für ihre Vollständigkeit oder Richtigkeit.
Kontakt: Rainer Krienke krienke@uni-koblenz.de . Meine Webseiten an der Uni Koblenz oder privat.
Version: $Revision: 0.78 $